FW6618 Weather Reports


Display with metric or nautical units.
time (UTC)temp
F
wind
direction
speed
MPH
gust
MPH
rain 1hr
in
rain 24hr
in
rain mn
in
humidity
%
barometer
mb
20260905145024 66 245 0.0 3.0 0.00 0.00 0.00 88 1013.7
20260905144547 66 277 0.0 3.0 0.00 0.00 0.00 87 1013.8
20260905144023 66 146 0.0 2.0 0.00 0.00 0.00 87 1013.8
20260905143524 66 162 0.0 2.0 0.00 0.00 0.00 87 1013.7
20260905143044 66 58 1.0 2.0 0.00 0.00 0.00 87 1013.7
20260905142520 65 210 0.0 2.0 0.00 0.00 0.00 89 1013.7
20260905142019 65 246 0.0 2.0 0.00 0.00 0.00 88 1013.6
20260905141542 65 0 0.0 2.0 0.00 0.00 0.00 89 1013.8
20260905141027 65 190 1.0 3.0 0.00 0.00 0.00 88 1013.7
20260905140524 65 245 0.0 3.0 0.00 0.00 0.00 90 1013.8
20260905140049 65 224 2.0 3.0 0.00 0.00 0.00 89 1013.7
20260905135524 64 0 1.0 4.0 0.00 0.00 0.00 91 1013.7
20260905135024 64 0 0.0 4.0 0.00 0.00 0.00 92 1013.7
20260905134549 63 207 0.0 1.0 0.00 0.00 0.00 93 1013.8
20260905134025 63 193 0.0 2.0 0.00 0.00 0.00 92 1013.8
20260905133518 62 192 0.0 2.0 0.00 0.00 0.00 94 1013.8
20260905133038 62 192 0.0 1.0 0.00 0.00 0.00 95 1013.8
20260905132520 61 0 0.0 0.0 0.00 0.00 0.00 96 1013.9
20260905132024 61 0 0.0 0.0 0.00 0.00 0.00 96 1013.8
20260905131545 60 0 0.0 0.0 0.00 0.00 0.00 97 1013.8
20260905131026 60 193 0.0 0.0 0.00 0.00 0.00 97 1013.8
20260905130524 60 193 0.0 2.0 0.00 0.00 0.00 97 1013.8
20260905130044 60 0 0.0 2.0 0.00 0.00 0.00 97 1013.6
20260905125519 60 198 0.0 2.0 0.00 0.00 0.00 97 1013.7
20260905125019 60 210 1.0 2.0 0.00 0.00 0.00 98 1013.7
20260905124541 59 0 0.0 2.0 0.00 0.00 0.00 98 1013.6
20260905124024 59 0 0.0 2.0 0.00 0.00 0.00 98 1013.6
20260905123524 59 168 0.0 2.0 0.00 0.00 0.00 98 1013.6
20260905123045 59 0 0.0 2.0 0.00 0.00 0.00 98 1013.6
20260905122525 58 200 0.0 2.0 0.00 0.00 0.00 98 1013.5
20260905122028 58 200 0.0 2.0 0.00 0.00 0.00 98 1013.4
20260905121545 58 0 0.0 1.0 0.00 0.00 0.00 98 1013.5
20260905121026 58 244 0.0 1.0 0.00 0.00 0.00 98 1013.5
20260905120523 58 0 0.0 1.0 0.00 0.00 0.00 98 1013.4
20260905120041 58 0 0.0 0.0 0.00 0.00 0.00 98 1013.5
20260905115525 57 0 0.0 0.0 0.00 0.00 0.00 98 1013.4
20260905115018 57 0 0.0 0.0 0.00 0.00 0.00 98 1013.3
20260905114545 57 0 0.0 1.0 0.00 0.00 0.00 98 1013.2
20260905114019 57 0 0.0 1.0 0.00 0.00 0.00 98 1013.3
20260905113521 57 0 0.0 1.0 0.00 0.00 0.00 98 1013.1
20260905113042 56 0 0.0 1.0 0.00 0.00 0.00 98 1013.2
20260905112519 56 0 0.0 0.0 0.00 0.00 0.00 98 1013.3
20260905112021 56 0 0.0 0.0 0.00 0.00 0.00 97 1013.2
20260905111550 56 0 0.0 1.0 0.00 0.00 0.00 97 1013.1
20260905111021 56 0 0.0 1.0 0.00 0.00 0.00 97 1013.2
20260905110520 56 200 0.0 0.0 0.00 0.00 0.00 97 1013.2
20260905110046 56 0 0.0 0.0 0.00 0.00 0.00 97 1013.2
20260905105519 56 204 0.0 0.0 0.00 0.00 0.00 97 1013.1
20260905105018 56 0 0.0 1.0 0.00 0.00 0.00 97 1012.9
20260905104542 56 0 0.0 1.0 0.00 0.00 0.00 97 1012.8
20260905104020 56 0 0.0 1.0 0.00 0.00 0.00 97 1013.0
20260905103517 56 0 0.0 1.0 0.00 0.00 0.00 97 1012.9
20260905103040 56 0 0.0 0.0 0.00 0.00 0.00 97 1012.9
20260905102519 56 0 0.0 0.0 0.00 0.00 0.00 97 1012.7
20260905102021 56 0 0.0 0.0 0.00 0.00 0.00 97 1012.7
20260905101539 56 0 0.0 0.0 0.00 0.00 0.00 97 1012.7
20260905101019 56 0 0.0 0.0 0.00 0.00 0.00 97 1012.7
20260905100519 56 0 0.0 0.0 0.00 0.00 0.00 97 1012.7
20260905100043 56 0 0.0 0.0 0.00 0.00 0.00 97 1012.6
20260905095520 56 0 0.0 0.0 0.00 0.00 0.00 97 1012.7
20260905095023 56 0 0.0 0.0 0.00 0.00 0.00 97 1012.6
20260905094539 56 0 0.0 0.0 0.00 0.00 0.00 97 1012.8
20260905094019 56 0 0.0 0.0 0.00 0.00 0.00 97 1012.7
20260905093519 56 0 0.0 0.0 0.00 0.00 0.00 97 1012.7
20260905093043 56 0 0.0 0.0 0.00 0.00 0.00 97 1012.8
20260905092521 56 0 0.0 0.0 0.00 0.00 0.00 97 1012.6
20260905092025 56 0 0.0 0.0 0.00 0.00 0.00 97 1012.7
20260905091540 56 0 0.0 0.0 0.00 0.00 0.00 97 1012.6
20260905091021 56 0 0.0 0.0 0.00 0.00 0.00 97 1012.6
20260905090520 56 0 0.0 0.0 0.00 0.00 0.00 97 1012.5
20260905090059 56 0 0.0 0.0 0.00 0.00 0.00 97 1012.5
20260905085520 56 0 0.0 0.0 0.00 0.00 0.00 97 1012.5
20260905085023 56 0 0.0 0.0 0.00 0.00 0.00 97 1012.5
20260905084544 56 0 0.0 0.0 0.00 0.00 0.00 97 1012.4
20260905084023 55 0 0.0 0.0 0.00 0.00 0.00 97 1012.3
20260905083519 56 0 0.0 0.0 0.00 0.00 0.00 97 1012.5
20260905083042 56 0 0.0 0.0 0.00 0.00 0.00 97 1012.4
20260905082519 56 0 0.0 0.0 0.00 0.00 0.00 97 1012.3
20260905082019 56 0 0.0 0.0 0.00 0.00 0.00 97 1012.3
20260905081546 56 0 0.0 0.0 0.00 0.00 0.00 97 1012.3
20260905081024 56 0 0.0 0.0 0.00 0.00 0.00 97 1012.4
20260905080525 56 0 0.0 0.0 0.00 0.00 0.00 97 1012.4
20260905080044 56 0 0.0 0.0 0.00 0.00 0.00 97 1012.4
20260905075521 56 0 0.0 0.0 0.00 0.00 0.00 97 1012.3
20260905075021 56 0 0.0 0.0 0.00 0.00 0.00 97 1012.4
20260905074546 56 0 0.0 0.0 0.00 0.00 0.00 97 1012.4
20260905074022 57 0 0.0 0.0 0.00 0.00 0.00 97 1012.5
20260905073528 57 0 0.0 0.0 0.00 0.00 0.00 97 1012.5
20260905073046 57 0 0.0 0.0 0.00 0.00 0.00 97 1012.4
20260905072518 57 0 0.0 0.0 0.00 0.00 0.00 97 1012.4
20260905072026 57 0 0.0 0.0 0.00 0.00 0.00 97 1012.5
20260905071545 57 0 0.0 0.0 0.00 0.00 0.00 97 1012.7
20260905071024 57 0 0.0 0.0 0.00 0.00 0.00 97 1012.7
20260905070523 57 0 0.0 0.0 0.00 0.00 0.00 97 1012.7
20260905070048 57 0 0.0 0.0 0.00 0.00 0.00 97 1012.8
20260905065523 57 0 0.0 0.0 0.00 0.00 0.00 97 1012.8
20260905065019 57 0 0.0 0.0 0.00 0.00 0.00 97 1012.9
20260905064543 57 0 0.0 0.0 0.00 0.00 0.00 97 1012.8
20260905064025 58 0 0.0 0.0 0.00 0.00 0.00 97 1012.8
20260905063522 58 0 0.0 0.0 0.00 0.00 0.00 97 1012.7
20260905063043 58 0 0.0 0.0 0.00 0.00 0.00 97 1012.8
20260905062524 58 0 0.0 0.0 0.00 0.00 0.00 97 1012.8
20260905062021 58 0 0.0 0.0 0.00 0.00 0.00 97 1012.9
20260905061545 58 0 0.0 0.0 0.00 0.00 0.00 97 1012.9
20260905061023 58 0 0.0 0.0 0.00 0.00 0.00 97 1013.1
20260905060524 59 0 0.0 0.0 0.00 0.00 0.00 97 1013.1
20260905060046 59 0 0.0 0.0 0.00 0.00 0.00 97 1013.1
20260905055526 59 0 0.0 0.0 0.00 0.00 0.00 97 1013.1
20260905055024 59 0 0.0 0.0 0.00 0.00 0.00 97 1012.9
20260905054543 59 0 0.0 0.0 0.00 0.00 0.00 97 1013.0
20260905054022 59 0 0.0 0.0 0.00 0.00 0.00 97 1013.0
20260905053523 59 0 0.0 0.0 0.00 0.00 0.00 96 1013.1
20260905053039 59 0 0.0 0.0 0.00 0.00 0.00 96 1013.1
20260905052523 60 0 0.0 0.0 0.00 0.00 0.00 96 1013.0
20260905052019 60 0 0.0 0.0 0.00 0.00 0.00 96 1013.0
20260905051541 60 0 0.0 0.0 0.00 0.00 0.00 96 1012.9
20260905051023 60 0 0.0 0.0 0.00 0.00 0.00 96 1013.1
20260905050524 60 0 0.0 0.0 0.00 0.00 0.00 96 1013.1
20260905050044 61 0 0.0 0.0 0.00 0.00 0.00 95 1013.1
20260905045527 61 0 0.0 0.0 0.00 0.00 0.00 95 1013.2
20260905045021 61 0 0.0 0.0 0.00 0.00 0.00 95 1013.1
20260905044543 61 0 0.0 0.0 0.00 0.00 0.00 95 1013.2
20260905044021 61 0 0.0 0.0 0.00 0.00 0.00 95 1013.3
20260905043519 61 0 0.0 0.0 0.00 0.00 0.00 95 1013.3
20260905043042 62 0 0.0 0.0 0.00 0.00 0.00 95 1013.2
20260905042524 62 0 0.0 0.0 0.00 0.00 0.00 95 1013.3
20260905042024 62 0 0.0 0.0 0.00 0.00 0.00 95 1013.3
20260905041551 62 0 0.0 0.0 0.00 0.00 0.00 95 1013.2
20260905041023 62 0 0.0 0.0 0.00 0.00 0.00 94 1013.2
20260905040524 62 0 0.0 0.0 0.00 0.00 0.00 94 1013.3
20260905040045 62 0 0.0 0.0 0.00 0.00 0.00 94 1013.2
20260905035523 62 0 0.0 0.0 0.00 0.00 0.00 94 1013.2
20260905035020 62 0 0.0 0.0 0.00 0.00 0.00 94 1013.2
20260905034548 62 0 0.0 0.0 0.00 0.00 0.00 94 1013.2
20260905034020 62 0 0.0 0.0 0.00 0.00 0.00 94 1013.1
20260905033521 61 0 0.0 0.0 0.00 0.00 0.00 94 1013.1
20260905033041 61 0 0.0 0.0 0.00 0.00 0.00 94 1013.2
20260905032524 61 0 0.0 0.0 0.00 0.00 0.00 94 1013.2
20260905032023 61 0 0.0 0.0 0.00 0.00 0.00 94 1013.2
20260905031544 61 0 0.0 0.0 0.00 0.00 0.00 93 1013.3
20260905031028 61 0 0.0 0.0 0.00 0.00 0.00 93 1013.0
20260905030524 62 0 0.0 0.0 0.00 0.00 0.00 94 1013.1
20260905030046 62 0 0.0 0.0 0.00 0.00 0.00 94 1013.1
20260905025520 61 0 0.0 0.0 0.00 0.00 0.00 94 1013.3
20260905025023 61 0 0.0 0.0 0.00 0.00 0.00 94 1013.2
20260905024541 61 0 0.0 0.0 0.00 0.00 0.00 94 1013.2
20260905024021 61 0 0.0 0.0 0.00 0.00 0.00 94 1013.2
20260905023518 61 0 0.0 0.0 0.00 0.00 0.00 94 1013.2
20260905023038 61 0 0.0 0.0 0.00 0.00 0.00 93 1013.2
20260905022523 61 0 0.0 0.0 0.00 0.00 0.00 93 1013.2
20260905022025 62 0 0.0 0.0 0.00 0.00 0.00 93 1013.1
20260905021546 62 0 0.0 0.0 0.00 0.00 0.00 93 1013.3
20260905021021 62 0 0.0 0.0 0.00 0.00 0.00 93 1013.4
20260905020524 62 0 0.0 0.0 0.00 0.00 0.00 93 1013.3
20260905020043 62 0 0.0 0.0 0.00 0.00 0.00 93 1013.2
20260905015523 62 0 0.0 0.0 0.00 0.00 0.00 93 1013.3
20260905015020 62 0 0.0 0.0 0.00 0.00 0.00 93 1013.3
20260905014542 62 0 0.0 0.0 0.00 0.00 0.00 92 1013.4
20260905014018 62 0 0.0 0.0 0.00 0.00 0.00 92 1013.4
20260905013526 62 0 0.0 0.0 0.00 0.00 0.00 92 1013.4
20260905013056 62 0 0.0 0.0 0.00 0.00 0.00 92 1013.4
20260905012524 62 0 0.0 0.0 0.00 0.00 0.00 91 1013.4
20260905012024 62 0 0.0 0.0 0.00 0.00 0.00 91 1013.3
20260905011540 63 0 0.0 0.0 0.00 0.00 0.00 91 1013.3
20260905011027 63 0 0.0 0.0 0.00 0.00 0.00 91 1013.3
20260905010521 63 0 0.0 0.0 0.00 0.00 0.00 91 1013.2
20260905010043 64 0 0.0 0.0 0.00 0.00 0.00 91 1013.2
20260905005521 64 0 0.0 0.0 0.00 0.00 0.00 91 1013.2
20260905005020 64 0 0.0 0.0 0.00 0.00 0.00 90 1013.2
20260905004609 64 0 0.0 0.0 0.00 0.00 0.00 89 1013.1
20260905004019 64 0 0.0 0.0 0.00 0.00 0.00 89 1013.1
20260905003528 65 0 0.0 0.0 0.00 0.00 0.00 90 1013.0
20260905003043 65 0 0.0 0.0 0.00 0.00 0.00 90 1013.1
20260905002524 65 0 0.0 1.0 0.00 0.00 0.00 90 1013.0
20260905002026 65 0 0.0 1.0 0.00 0.00 0.00 89 1013.0
20260905001554 65 0 0.0 1.0 0.00 0.00 0.00 89 1013.2
20260905001022 66 44 0.0 1.0 0.00 0.00 0.00 89 1013.2
20260905000521 66 0 0.0 1.0 0.00 0.00 0.00 89 1013.1
20260905000048 66 46 0.0 1.0 0.00 0.00 0.00 90 1013.0
20260904235520 66 0 0.0 1.0 0.00 0.00 0.00 90 1013.0
20260904235018 66 0 0.0 1.0 0.00 0.00 0.00 90 1012.8
20260904234541 66 0 0.0 1.0 0.00 0.00 0.00 90 1012.8
20260904234023 67 0 0.0 1.0 0.00 0.00 0.00 90 1012.8
20260904233524 67 48 0.0 1.0 0.00 0.00 0.00 90 1012.8
20260904233043 67 0 0.0 1.0 0.00 0.00 0.00 90 1012.7
20260904232524 67 0 0.0 1.0 0.00 0.00 0.00 89 1012.7
20260904232024 67 0 0.0 1.0 0.00 0.00 0.00 90 1012.7
20260904231543 68 0 0.0 1.0 0.00 0.00 0.00 89 1012.7
20260904231023 68 0 0.0 1.0 0.00 0.00 0.00 89 1012.8
20260904230520 68 49 0.0 1.0 0.00 0.00 0.00 88 1012.6
20260904230043 68 50 0.0 1.0 0.00 0.00 0.00 88 1012.5
20260904225519 69 0 0.0 0.0 0.00 0.00 0.00 88 1012.6
20260904225024 69 0 0.0 0.0 0.00 0.00 0.00 88 1012.6
20260904224541 69 0 0.0 0.0 0.00 0.00 0.00 88 1012.5
20260904224024 70 0 0.0 0.0 0.00 0.00 0.00 87 1012.4
20260904223524 70 0 0.0 0.0 0.00 0.00 0.00 87 1012.5
20260904223044 70 0 0.0 0.0 0.00 0.00 0.00 87 1012.5
20260904222525 70 0 0.0 1.0 0.00 0.00 0.00 85 1012.4
20260904222023 71 340 0.0 1.0 0.00 0.00 0.00 84 1012.5
20260904221550 71 0 0.0 1.0 0.00 0.00 0.00 83 1012.4
20260904221024 72 0 0.0 2.0 0.00 0.00 0.00 82 1012.5
20260904220521 72 340 0.0 2.0 0.00 0.00 0.00 81 1012.5
20260904220044 73 340 0.0 2.0 0.00 0.00 0.00 79 1012.4
20260904215518 73 311 0.0 1.0 0.00 0.00 0.00 80 1012.4
20260904215024 73 0 0.0 1.0 0.00 0.00 0.00 80 1012.3
20260904214548 74 302 0.0 1.0 0.00 0.00 0.00 80 1012.3
20260904214024 74 75 0.0 1.0 0.00 0.00 0.00 75 1012.3
20260904213527 74 74 0.0 4.0 0.00 0.00 0.00 76 1012.4
20260904213045 73 75 0.0 4.0 0.00 0.00 0.00 70 1012.5
20260904212524 73 310 0.0 3.0 0.00 0.00 0.00 74 1012.6
20260904212021 73 81 1.0 3.0 0.00 0.00 0.00 73 1012.6
20260904211545 73 0 1.0 4.0 0.00 0.00 0.00 76 1012.6
20260904211021 73 279 1.0 4.0 0.00 0.00 0.00 75 1012.6
20260904210521 73 345 1.0 2.0 0.00 0.00 0.00 80 1012.6
20260904210041 73 0 0.0 4.0 0.00 0.00 0.00 76 1012.6
20260904205525 74 289 0.0 4.0 0.00 0.00 0.00 69 1012.5
20260904205025 74 283 1.0 6.0 0.00 0.00 0.00 66 1012.5
20260904204543 74 247 1.0 6.0 0.00 0.00 0.00 65 1012.6
20260904204024 75 150 2.0 6.0 0.00 0.00 0.00 63 1012.5
20260904203524 76 284 0.0 3.0 0.00 0.00 0.00 64 1012.4
20260904203047 77 0 0.0 5.0 0.00 0.00 0.00 64 1012.4
20260904202525 77 189 2.0 5.0 0.00 0.00 0.00 61 1012.4
20260904202027 77 75 1.0 4.0 0.00 0.00 0.00 61 1012.5
20260904201546 76 321 2.0 4.0 0.00 0.00 0.00 61 1012.4
20260904201024 76 304 1.0 5.0 0.00 0.00 0.00 62 1012.6
20260904200528 76 200 1.0 5.0 0.00 0.00 0.00 64 1012.5
20260904200045 76 177 2.0 6.0 0.00 0.00 0.00 60 1012.4
20260904195525 77 268 1.0 7.0 0.00 0.00 0.00 61 1012.4
20260904195022 77 291 2.0 7.0 0.00 0.00 0.00 60 1012.5
20260904194551 77 117 2.0 7.0 0.00 0.00 0.00 65 1012.5
20260904194019 76 111 1.0 4.0 0.00 0.00 0.00 61 1012.5
20260904193519 77 210 1.0 4.0 0.00 0.00 0.00 60 1012.6
20260904193040 77 286 2.0 6.0 0.00 0.00 0.00 59 1012.7
20260904192519 78 283 2.0 11.0 0.00 0.00 0.00 60 1012.7
20260904192028 78 191 2.0 11.0 0.00 0.00 0.00 61 1012.7
20260904191543 78 188 2.0 11.0 0.00 0.00 0.00 57 1012.7
20260904191024 78 245 2.0 9.0 0.00 0.00 0.00 59 1012.7
20260904190526 78 25 2.0 9.0 0.00 0.00 0.00 58 1012.8
20260904190045 78 326 3.0 9.0 0.00 0.00 0.00 59 1012.6
20260904185524 79 77 2.0 5.0 0.00 0.00 0.00 57 1012.7
20260904185025 79 348 2.0 5.0 0.00 0.00 0.00 59 1012.7
20260904184541 79 340 2.0 4.0 0.00 0.00 0.00 57 1012.5
20260904184019 79 60 1.0 6.0 0.00 0.00 0.00 63 1012.7
20260904183518 78 158 1.0 8.0 0.00 0.00 0.00 63 1013.0
20260904183041 77 98 3.0 8.0 0.00 0.00 0.00 63 1012.8
20260904182521 77 285 2.0 5.0 0.00 0.00 0.00 67 1013.0
20260904182026 77 150 1.0 5.0 0.00 0.00 0.00 64 1012.9
20260904181555 77 93 1.0 9.0 0.00 0.00 0.00 63 1013.1
20260904181023 77 193 2.0 9.0 0.00 0.00 0.00 61 1013.1
20260904180526 78 360 3.0 9.0 0.00 0.00 0.00 60 1013.0
20260904180051 78 260 3.0 9.0 0.00 0.00 0.00 59 1013.1
20260904175517 77 134 3.0 7.0 0.00 0.00 0.00 60 1013.0
20260904175017 77 277 2.0 5.0 0.00 0.00 0.00 62 1013.1
20260904174546 77 292 1.0 6.0 0.00 0.00 0.00 63 1013.2
20260904174024 77 236 2.0 6.0 0.00 0.00 0.00 63 1013.1
20260904173524 77 97 2.0 6.0 0.00 0.00 0.00 64 1013.0
20260904173044 77 125 2.0 5.0 0.00 0.00 0.00 65 1013.1
20260904172523 78 281 1.0 6.0 0.00 0.00 0.00 63 1013.1
20260904172020 78 21 2.0 6.0 0.00 0.00 0.00 64 1012.9
20260904171610 78 104 2.0 7.0 0.00 0.00 0.00 62 1013.0
20260904171021 77 193 3.0 7.0 0.00 0.00 0.00 67 1012.9
20260904170519 77 279 3.0 7.0 0.00 0.00 0.00 61 1013.2
20260904170045 77 286 2.0 5.0 0.00 0.00 0.00 65 1013.1
20260904165520 77 0 2.0 6.0 0.00 0.00 0.00 63 1013.2
20260904165025 77 254 1.0 6.0 0.00 0.00 0.00 67 1013.3
20260904164541 76 321 2.0 6.0 0.00 0.00 0.00 70 1013.3
20260904164023 75 161 1.0 5.0 0.00 0.00 0.00 70 1013.2
20260904163523 74 89 0.0 4.0 0.00 0.00 0.00 73 1013.4
20260904163043 74 220 2.0 6.0 0.00 0.00 0.00 70 1013.4
20260904162520 75 168 2.0 7.0 0.00 0.00 0.00 68 1013.5
20260904162021 76 155 1.0 7.0 0.00 0.00 0.00 71 1013.4
20260904161552 76 286 2.0 7.0 0.00 0.00 0.00 72 1013.7
20260904161023 76 131 1.0 5.0 0.00 0.00 0.00 71 1013.6
20260904160519 75 155 1.0 6.0 0.00 0.00 0.00 71 1013.7
20260904160042 75 79 2.0 6.0 0.00 0.00 0.00 70 1013.6
20260904155522 75 221 1.0 6.0 0.00 0.00 0.00 70 1013.6
20260904155028 75 311 1.0 4.0 0.00 0.00 0.00 72 1013.7
20260904154543 74 28 2.0 7.0 0.00 0.00 0.00 71 1013.8
20260904154028 74 139 1.0 9.0 0.00 0.00 0.00 73 1013.8
20260904153527 74 283 1.0 9.0 0.00 0.00 0.00 73 1013.9
20260904153053 73 311 2.0 5.0 0.00 0.00 0.00 74 1013.9
20260904152521 73 191 2.0 8.0 0.00 0.00 0.00 74 1013.9
20260904152021 73 219 3.0 8.0 0.00 0.00 0.00 73 1013.9
20260904151544 73 321 2.0 7.0 0.00 0.00 0.00 75 1014.0
20260904151024 73 339 3.0 7.0 0.00 0.00 0.00 76 1013.9
20260904150518 73 313 1.0 4.0 0.00 0.00 0.00 79 1013.9
20260904150041 72 282 1.0 6.0 0.00 0.00 0.00 77 1013.9
20260904145525 72 64 1.0 6.0 0.00 0.00 0.00 79 1014.0